星链-30587 (STARLINK-30587 )

导读 | 星芒AI

STARLINK-30587 是 SpaceX Starlink 项目中的第 30587 颗卫星,属于其低轨卫星互联网星座的一部分。该卫星旨在为全球用户提供高速、低延迟的互联网服务,特别是在偏远和网络基础设施薄弱的地区。它运行在近地轨道,配备先进通信设备,支持星间链路,以提升网络效率和覆盖范围。作为 Starlink 计划的扩展,该卫星有助于构建更强大、更稳定的全球宽带网络。

基本信息
目录编号:
58064
目录名称:
STARLINK-30587
国际标识:
2023-158P
轨道中心:
EARTH
卫星名称:
星链-30587
卫星全名:
星链-30587 (STARLINK-30587 )
卫星状态:
在轨 (已飞行799 天)
发射日期:
2023-10-13 UTC
国别 :
美国 (US)
星等 :
--
轨道信息
数据来源 国际轨道数据 AOE轨道数据
星历时间 2025-12-20T01:18:28+0800
15小时前
查看轨道信息
2025-12-16T11:00:00+0800
4天前
查看轨道信息
半长轴 6937.247km 6937.093km
偏心率 0.0001575 0.0000021
轨道倾角 43.003° 43.008°
近地点辐角 280.204° 39.291°
升交点赤经 104.717° 124.250°
平近点角 79.862° 286.533°
近地点 558.017km 558.943km
远地点 560.203km 558.973km
周期 95.839分钟 95.835分钟
每日圈数 15.025263 15.025764
详细信息
固有亮度:
5
最大亮度:
0.3
卫星平台:
Starlink v2.0 mini
覆盖范围:
全球
运营商:
太空探索技术公司
运营商所在国:
美国
制造商(研发单位):
太空探索技术公司
制造商所在国:
美国
使用方式:
暂无
卫星简介
星链(Starlink)计划是由太空探索技术公司(SpaceX)提出的一个巨型低轨卫星互联网星座项目,计划在2019年至2024年间在太空搭建由约1.2万颗卫星组成的“星链”网络,其中1584颗将部署在地球上空550千米处的近地轨道,并从2020年开始工作。该卫星仍在工作。
2D轨道图
3D轨道图
轨道高度分析图
轨道倾角分析图
轨道综合分析图
查看轨道综合分析图